Preview of NWS' New Version of Forecast
This preview is not operational and should not be used for support decisions.

Regional Weather Roundup (RWR)

Issued by National Weather Service (NWS)

                            
000
ASUS44 KMEG 211510
RWRTN 
TENNESSEE HOURLY STATE WEATHER ROUNDUP
NATIONAL WEATHER SERVICE MEMPHIS TN
1000 AM CDT SUN APR 21 2019

TNZ002-004-019-021-049-052-054-088>092-211600-
WEST TENNESSEE
  
CITY           SKY/WX    TMP DP  RH WIND       PRES   REMARKS
MEMPHIS INTL   FAIR      68  48  48 SW8       30.09R                  
NWS MEMPHIS      N/A     67 N/A N/A MISG        N/A                   
JACKSON        FAIR      64  46  52 CALM      30.10S                  
DYERSBURG      FAIR      64  50  60 S3        30.10R                  
SOMERVILLE     SUNNY     68  48  49 S7        30.09R                  
COVINGTON      SUNNY     63  50  63 S3        30.09R                  
UNION CITY     SUNNY     63  48  59 S6        30.08R                  
BOLIVAR        SUNNY     64  48  55 CALM      30.10R                  
PARIS          SUNNY     66  36  32 S8        30.09S                  
HUNTINGDON     SUNNY     64  46  52 S3        30.10R                  
LEXINGTON        N/A     61  45  55 SW7       30.11R                  
SELMER         SUNNY     63  41  45 SW6       30.10S                  
SAVANNAH       SUNNY     64  45  48 SW6       30.11S                  
$$

TNZ008-025-027-028-033-062-065-066-211600-
NORTH MIDDLE TENNESSEE
  
CITY           SKY/WX    TMP DP  RH WIND       PRES   REMARKS
NASHVILLE      FAIR      56  45  66 VRB3      30.14R                  
DICKSON        SUNNY     64  32  29 VRB3      30.10R                  
PORTLAND       SUNNY     57  45  62 VRB3      30.11S                  
CLARKSVILLE    FAIR      63  40  42 SE3       30.10R                  
LEBANON        SUNNY     52  45  76 CALM      30.12S                  
SMYRNA         FAIR      52  45  77 CALM      30.15R                  
MURFREESBORO   SUNNY     55  41  58 CALM      30.12R                  
COOKEVILLE     PTSUNNY   48  45  87 CALM      30.14R                  
LIVINGSTON     SUNNY     50  45  81 VRB3      30.11R                  
GALLATIN       CLOUDY    46  45  93 CALM      30.17R                  
CROSSVILLE     FAIR      54  39  57 NW6       30.12R                  
ROCKWOOD       SUNNY     54  37  54 VRB6      30.11R                  
$$

TNZ061-075-076-078-094-096-097-211600-
SOUTH MIDDLE TENNESSEE
  
CITY           SKY/WX    TMP DP  RH WIND       PRES   REMARKS
LAWRENCEBURG   SUNNY     64  30  27 SW3       30.12S                  
LEWISBURG      SUNNY     63  43  48 CALM      30.12R                  
FAYETTEVILLE   SUNNY     61  43  51 CALM      30.13R                  
TULLAHOMA      SUNNY     57  45  62 CALM      30.13R                  
WINCHESTER     SUNNY     57  41  54 CALM      30.14R                  
MCMINNVILLE    SUNNY     55  43  62 W7        30.13S                  
COLUMBIA       SUNNY     63  37  39 CALM      30.11R                  
SHELBYVILLE    SUNNY     57  41  54 CALM      30.14R                  
$$

TNZ017-018-042-046-047-211600-
NORTHEAST TENNESSEE
  
CITY           SKY/WX    TMP DP  RH WIND       PRES   REMARKS
TRI CITIES     CLOUDY    47  37  68 W8        30.11R                  
ELIZABETHTON   CLOUDY    46  39  76 VRB6G13   30.10R                  
GREENEVILLE    CLOUDY    46  41  81 W7        30.11R                  
$$

TNZ012-013-036-069-073-074-211600-
CENTRAL EAST TENNESSEE
  
CITY           SKY/WX    TMP DP  RH WIND       PRES   REMARKS
KNOXVILLE      PTSUNNY   52  43  71 CALM      30.11R                  
OAK RIDGE      FAIR      56  41  57 VRB3      30.13R                  
DOWNTOWN KNOXV CLOUDY    54  43  66 CALM      30.13R                  
GATLINBURG     CLOUDY    52  43  71 VRB3      30.12R                  
MORRISTOWN     CLOUDY    48  43  81 VRB6      30.11R                  
JACKSBORO      MOSUNNY   55  45  67 CALM      30.14R                  
$$

TNZ083-085-099-211600-
SOUTHEAST TENNESSEE
  
CITY           SKY/WX    TMP DP  RH WIND       PRES   REMARKS
CHATTANOOGA    FAIR      57  42  57 NW3       30.13R                  
DAYTON         SUNNY     55  45  67 CALM      30.13R                  
$$

SKY/WX REPORTED AS FAIR MEANS FEW OR NO CLOUDS BELOW
12 THOUSAND FEET.